VK6WB Weather Reports


time (UTC)temp
C
wind
direction
speed
KPH
gust
KPH
rain 1hr
cm
rain 24hr
cm
rain mn
cm
humidity
%
barometer
mb
20260510095005 21 249 0.0 6.4 0.00 0.00 0.00 25 1018.5
20260510094004 21 242 3.2 6.4 0.00 0.00 0.00 24 1018.4
20260510093005 22 248 3.2 6.4 0.00 0.00 0.00 23 1018.3
20260510092004 22 235 1.6 6.4 0.00 0.00 0.00 22 1018.3
20260510091005 23 227 3.2 11.3 0.00 0.00 0.00 19 1018.2
20260510090004 24 245 3.2 9.7 0.00 0.00 0.00 16 1018.4
20260510085005 25 216 4.8 11.3 0.00 0.00 0.00 13 1018.4
20260510084004 25 203 4.8 12.9 0.00 0.00 0.00 13 1018.6
20260510083005 25 212 6.4 12.9 0.00 0.00 0.00 13 1018.4
20260510082004 25 189 9.7 17.7 0.00 0.00 0.00 13 1018.4
20260510081005 26 185 4.8 17.7 0.00 0.00 0.00 12 1018.4
20260510080004 25 211 3.2 17.7 0.00 0.00 0.00 14 1018.5
20260510075005 25 225 3.2 17.7 0.00 0.00 0.00 13 1018.4
20260510074004 25 199 8.0 12.9 0.00 0.00 0.00 14 1018.6
20260510073005 26 187 6.4 12.9 0.00 0.00 0.00 14 1018.6
20260510072004 25 257 6.4 16.1 0.00 0.00 0.00 17 1018.6
20260510071004 25 241 6.4 14.5 0.00 0.00 0.00 15 1018.6
20260510070005 25 204 6.4 24.1 0.00 0.00 0.00 15 1018.6
20260510065004 25 198 12.9 24.1 0.00 0.00 0.00 15 1018.5
20260510064004 25 212 8.0 16.1 0.00 0.00 0.00 16 1018.7
20260510063005 25 204 8.0 19.3 0.00 0.00 0.00 17 1018.8
20260510062004 25 211 4.8 20.9 0.00 0.00 0.00 18 1018.9
20260510061005 25 226 4.8 19.3 0.00 0.00 0.00 17 1018.9
20260510060005 25 185 9.7 24.1 0.00 0.00 0.00 17 1019.1
20260510055004 25 211 9.7 16.1 0.00 0.00 0.00 16 1019.0
20260510054004 25 223 9.7 17.7 0.00 0.00 0.00 17 1019.3
20260510053004 25 179 3.2 14.5 0.00 0.00 0.00 18 1019.4
20260510052004 25 185 6.4 20.9 0.00 0.00 0.00 19 1019.5
20260510051005 24 188 4.8 20.9 0.00 0.00 0.00 20 1019.6
20260510050004 23 195 12.9 20.9 0.00 0.00 0.00 20 1019.8
20260510045005 23 204 11.3 27.4 0.00 0.00 0.00 21 1019.9
20260510044004 23 188 6.4 17.7 0.00 0.00 0.00 21 1019.9
20260510043004 23 162 12.9 20.9 0.00 0.00 0.00 20 1020.1
20260510042005 22 175 9.7 22.5 0.00 0.00 0.00 22 1020.2
20260510041004 22 187 12.9 27.4 0.00 0.00 0.00 22 1020.4
20260510040004 22 164 11.3 24.1 0.00 0.00 0.00 26 1020.7
20260510035004 22 173 8.0 22.5 0.00 0.00 0.00 27 1020.8
20260510034004 22 181 4.8 19.3 0.00 0.00 0.00 28 1020.9
20260510033004 22 193 8.0 19.3 0.00 0.00 0.00 28 1021.1
20260510032004 22 191 6.4 20.9 0.00 0.00 0.00 28 1021.2
20260510031004 22 196 12.9 22.5 0.00 0.00 0.00 29 1021.3
20260510030005 22 198 8.0 24.1 0.00 0.00 0.00 31 1021.4
20260510025004 21 186 8.0 20.9 0.00 0.00 0.00 32 1021.6
20260510024004 21 173 12.9 24.1 0.00 0.00 0.00 33 1021.7
20260510023004 21 190 16.1 29.0 0.00 0.00 0.00 33 1021.7
20260510022004 21 205 9.7 30.6 0.00 0.00 0.00 35 1021.8
20260510021004 20 225 12.9 24.1 0.00 0.00 0.00 37 1021.9
20260510020004 20 218 11.3 17.7 0.00 0.00 0.00 38 1022.2
20260510015004 20 206 6.4 19.3 0.00 0.00 0.00 38 1022.3
20260510014004 18 211 9.7 19.3 0.00 0.00 0.00 41 1022.4
20260510013005 21 213 6.4 22.5 0.00 0.00 0.00 42 1022.3
20260510012004 23 213 8.0 17.7 0.00 0.00 0.00 42 1022.4
20260510011004 21 230 6.4 16.1 0.00 0.00 0.00 44 1022.4
20260510010004 17 210 9.7 17.7 0.00 0.00 0.00 45 1022.4
20260510005004 17 206 8.0 17.7 0.00 0.00 0.00 46 1022.5
20260510004004 16 228 6.4 17.7 0.00 0.00 0.00 49 1022.2
20260510003005 16 209 6.4 19.3 0.00 0.00 0.00 50 1022.3
20260510002004 16 229 11.3 16.1 0.00 0.00 0.00 50 1022.1
20260510001004 15 224 8.0 17.7 0.00 0.00 0.00 52 1022.0
20260510000004 15 227 9.7 16.1 0.00 0.00 0.00 54 1022.0
20260509235004 14 235 6.4 16.1 0.00 0.00 0.00 55 1022.3
20260509234004 13 221 6.4 12.9 0.00 0.00 0.00 58 1022.2
20260509233004 12 229 8.0 12.9 0.00 0.00 0.00 60 1022.3
20260509232004 12 214 6.4 12.9 0.00 0.00 0.00 62 1022.3
20260509231004 12 222 4.8 11.3 0.00 0.00 0.00 62 1022.0
20260509230004 12 232 3.2 11.3 0.00 0.00 0.00 62 1021.9
20260509225004 12 237 6.4 11.3 0.00 0.00 0.00 62 1021.9
20260509224004 12 235 3.2 9.7 0.00 0.00 0.00 63 1021.9
20260509223004 12 236 4.8 6.4 0.00 0.00 0.00 63 1022.0
20260509222004 12 236 3.2 6.4 0.00 0.00 0.00 62 1021.9
20260509221004 12 250 3.2 8.0 0.00 0.00 0.00 61 1021.8
20260509220004 12 231 3.2 9.7 0.00 0.00 0.00 61 1021.6
20260509215004 12 251 3.2 8.0 0.00 0.00 0.00 61 1021.5
20260509214004 12 251 3.2 6.4 0.00 0.00 0.00 61 1021.5
20260509213005 12 242 3.2 6.4 0.00 0.00 0.00 61 1021.4
20260509212004 12 248 3.2 8.0 0.00 0.00 0.00 60 1021.5
20260509211004 12 234 3.2 6.4 0.00 0.00 0.00 60 1021.3
20260509210004 12 248 3.2 6.4 0.00 0.00 0.00 59 1021.4
20260509205004 12 230 3.2 8.0 0.00 0.00 0.00 57 1021.2
20260509204003 12 225 3.2 11.3 0.00 0.00 0.00 56 1021.1
20260509203004 12 227 4.8 12.9 0.00 0.00 0.00 56 1020.9
20260509202004 12 244 6.4 11.3 0.00 0.00 0.00 57 1020.7
20260509201003 12 233 3.2 8.0 0.00 0.00 0.00 57 1020.9
20260509200004 12 237 3.2 8.0 0.00 0.00 0.00 56 1020.8
20260509195004 12 236 4.8 11.3 0.00 0.00 0.00 56 1020.6
20260509194005 12 255 4.8 9.7 0.00 0.00 0.00 56 1020.8
20260509193005 12 244 3.2 6.4 0.00 0.00 0.00 56 1020.8
20260509192006 12 270 3.2 9.7 0.00 0.00 0.00 56 1020.6
20260509191005 12 244 3.2 6.4 0.00 0.00 0.00 56 1020.7
20260509190006 12 247 3.2 9.7 0.00 0.00 0.00 55 1020.7
20260509185006 12 246 3.2 8.0 0.00 0.00 0.00 55 1020.8
20260509184005 12 249 3.2 6.4 0.00 0.00 0.00 54 1020.7
20260509183005 13 263 3.2 9.7 0.00 0.00 0.00 54 1020.9
20260509182005 13 259 4.8 9.7 0.00 0.00 0.00 53 1020.7
20260509181005 13 245 3.2 9.7 0.00 0.00 0.00 52 1020.7
20260509180006 13 234 3.2 11.3 0.00 0.00 0.00 52 1020.6
20260509175005 13 234 4.8 9.7 0.00 0.00 0.00 50 1020.9
20260509174005 13 245 3.2 12.9 0.00 0.00 0.00 49 1020.9
20260509173005 13 274 6.4 14.5 0.00 0.00 0.00 48 1021.0
20260509172005 13 260 4.8 12.9 0.00 0.00 0.00 48 1020.9
20260509171005 13 270 9.7 12.9 0.00 0.00 0.00 48 1020.9
20260509170005 13 271 3.2 9.7 0.00 0.00 0.00 47 1021.0
20260509165005 13 273 3.2 9.7 0.00 0.00 0.00 47 1020.9
20260509164005 13 268 3.2 9.7 0.00 0.00 0.00 47 1021.1
20260509163005 13 257 3.2 9.7 0.00 0.00 0.00 47 1021.0
20260509162005 13 265 3.2 8.0 0.00 0.00 0.00 46 1021.0
20260509161005 14 265 3.2 6.4 0.00 0.00 0.00 45 1021.1
20260509160006 14 270 3.2 8.0 0.00 0.00 0.00 44 1021.1
20260509155005 15 254 3.2 11.3 0.00 0.00 0.00 43 1021.2
20260509154005 15 248 6.4 9.7 0.00 0.00 0.00 42 1021.2
20260509153005 15 232 4.8 9.7 0.00 0.00 0.00 42 1021.2
20260509152005 14 259 3.2 6.4 0.00 0.00 0.00 44 1021.3
20260509151005 14 270 1.6 3.2 0.00 0.00 0.00 45 1021.4
20260509150005 13 275 1.6 3.2 0.00 0.00 0.00 45 1021.5
20260509145005 14 267 1.6 3.2 0.00 0.00 0.00 45 1021.4
20260509144006 13 274 0.0 3.2 0.00 0.00 0.00 44 1021.5
20260509143005 14 279 0.0 3.2 0.00 0.00 0.00 44 1021.5
20260509142005 14 270 1.6 4.8 0.00 0.00 0.00 42 1021.6
20260509141005 15 277 1.6 6.4 0.00 0.00 0.00 42 1021.6
20260509140006 15 270 3.2 6.4 0.00 0.00 0.00 41 1021.5
20260509135005 15 251 3.2 8.0 0.00 0.00 0.00 40 1021.4
20260509134005 15 257 3.2 4.8 0.00 0.00 0.00 41 1021.5
20260509133005 15 255 1.6 3.2 0.00 0.00 0.00 41 1021.3
20260509132005 15 253 1.6 6.4 0.00 0.00 0.00 41 1021.4
20260509131005 15 252 1.6 3.2 0.00 0.00 0.00 41 1021.3
20260509130005 15 269 1.6 3.2 0.00 0.00 0.00 40 1021.3
20260509125005 15 260 1.6 12.9 0.00 0.00 0.00 39 1021.1
20260509124005 16 277 3.2 6.4 0.00 0.00 0.00 38 1021.2
20260509123005 16 273 3.2 6.4 0.00 0.00 0.00 36 1021.1
20260509122005 16 277 3.2 9.7 0.00 0.00 0.00 36 1021.1
20260509121005 16 281 3.2 9.7 0.00 0.00 0.00 36 1021.0
20260509120005 16 271 3.2 9.7 0.00 0.00 0.00 35 1020.9
20260509115005 16 270 3.2 9.7 0.00 0.00 0.00 35 1020.9
20260509114004 17 259 3.2 8.0 0.00 0.00 0.00 35 1020.8
20260509113005 17 288 3.2 11.3 0.00 0.00 0.00 35 1020.7
20260509112005 17 277 3.2 6.4 0.00 0.00 0.00 33 1020.7
20260509111005 17 287 3.2 6.4 0.00 0.00 0.00 32 1020.5
20260509110005 18 295 3.2 6.4 0.00 0.00 0.00 31 1020.6
20260509105005 18 295 3.2 6.4 0.00 0.00 0.00 30 1020.5
20260509104005 18 276 3.2 8.0 0.00 0.00 0.00 29 1020.5
20260509103005 18 298 3.2 8.0 0.00 0.00 0.00 29 1020.4
20260509102004 19 288 3.2 8.0 0.00 0.00 0.00 27 1020.6
20260509101005 20 293 3.2 6.4 0.00 0.00 0.00 26 1020.4
20260509100005 20 275 3.2 8.0 0.00 0.00 0.00 24 1020.4